| time (UTC) | temp C | wind direction | speed KPH | gust KPH | rain 1hr cm | rain 24hr cm | rain mn cm | humidity % | barometer mb |
| 20260507084412 | 5 | 93 | 3.2 | 3.2 | 0.00 | 0.00 | 0.00 | 83 | 1020.5 |
| 20260507083910 | 6 | 67 | 3.2 | 3.2 | 0.00 | 0.00 | 0.00 | 83 | 1020.5 |
| 20260507083406 | 6 | 39 | 4.8 | 6.4 | 0.00 | 0.00 | 0.00 | 83 | 1020.7 |
| 20260507082902 | 6 | 28 | 4.8 | 6.4 | 0.00 | 0.00 | 0.00 | 82 | 1020.7 |
| 20260507082358 | 6 | 39 | 4.8 | 6.4 | 0.00 | 0.00 | 0.00 | 81 | 1020.7 |
| 20260507081855 | 6 | 40 | 4.8 | 6.4 | 0.00 | 0.00 | 0.00 | 81 | 1020.8 |
| 20260507081351 | 6 | 65 | 4.8 | 6.4 | 0.00 | 0.00 | 0.00 | 80 | 1020.7 |
| 20260507080848 | 6 | 57 | 6.4 | 8.0 | 0.00 | 0.00 | 0.00 | 80 | 1020.6 |
| 20260507080344 | 6 | 70 | 8.0 | 9.7 | 0.00 | 0.00 | 0.00 | 80 | 1020.5 |
| 20260507075839 | 6 | 81 | 6.4 | 9.7 | 0.00 | 0.00 | 0.00 | 79 | 1020.5 |
| 20260507075336 | 7 | 80 | 0.0 | 6.4 | 0.00 | 0.00 | 0.00 | 79 | 1020.8 |
| 20260507074832 | 7 | 87 | 6.4 | 16.1 | 0.00 | 0.00 | 0.00 | 78 | 1020.4 |
| 20260507074330 | 7 | 136 | 9.7 | 11.3 | 0.00 | 0.00 | 0.00 | 76 | 1020.8 |
| 20260507073827 | 7 | 52 | 6.4 | 9.7 | 0.00 | 0.00 | 0.00 | 75 | 1021.1 |
| 20260507073324 | 7 | 16 | 9.7 | 14.5 | 0.00 | 0.00 | 0.00 | 74 | 1021.5 |
| 20260507072821 | 7 | 31 | 12.9 | 16.1 | 0.00 | 0.00 | 0.00 | 73 | 1021.8 |
| 20260507072318 | 7 | 8 | 9.7 | 11.3 | 0.00 | 0.00 | 0.00 | 72 | 1021.9 |
| 20260507071815 | 7 | 24 | 12.9 | 14.5 | 0.00 | 0.00 | 0.00 | 72 | 1021.5 |
| 20260507071312 | 7 | 16 | 12.9 | 17.7 | 0.00 | 0.00 | 0.00 | 71 | 1021.2 |
| 20260507070809 | 7 | 11 | 12.9 | 14.5 | 0.00 | 0.00 | 0.00 | 70 | 1021.7 |
| 20260507070306 | 7 | 17 | 8.0 | 17.7 | 0.00 | 0.00 | 0.00 | 70 | 1021.7 |
| 20260507065803 | 7 | 1 | 16.1 | 19.3 | 0.00 | 0.00 | 0.00 | 69 | 1021.9 |
| 20260507065259 | 7 | 13 | 12.9 | 16.1 | 0.00 | 0.00 | 0.00 | 68 | 1022.2 |
| 20260507064756 | 7 | 9 | 9.7 | 11.3 | 0.00 | 0.00 | 0.00 | 68 | 1022.1 |
| 20260507064255 | 7 | 30 | 8.0 | 12.9 | 0.00 | 0.00 | 0.00 | 67 | 1021.9 |
| 20260507063753 | 8 | 46 | 11.3 | 14.5 | 0.00 | 0.00 | 0.00 | 67 | 1022.0 |
| 20260507063249 | 8 | 8 | 11.3 | 16.1 | 0.00 | 0.00 | 0.00 | 67 | 1022.0 |
| 20260507062746 | 8 | 352 | 9.7 | 14.5 | 0.00 | 0.00 | 0.00 | 67 | 1021.8 |
| 20260507062243 | 8 | 48 | 12.9 | 17.7 | 0.00 | 0.00 | 0.00 | 66 | 1021.6 |
| 20260507061741 | 8 | 27 | 9.7 | 14.5 | 0.00 | 0.00 | 0.00 | 66 | 1021.7 |
| 20260507061239 | 8 | 28 | 9.7 | 12.9 | 0.00 | 0.00 | 0.00 | 66 | 1021.9 |
| 20260507060737 | 8 | 44 | 11.3 | 20.9 | 0.00 | 0.00 | 0.00 | 66 | 1021.6 |
| 20260507060233 | 8 | 50 | 14.5 | 19.3 | 0.00 | 0.00 | 0.00 | 66 | 1021.5 |
| 20260507055730 | 8 | 31 | 17.7 | 20.9 | 0.00 | 0.00 | 0.00 | 65 | 1021.1 |
| 20260507055225 | 8 | 39 | 14.5 | 22.5 | 0.00 | 0.00 | 0.00 | 65 | 1020.9 |
| 20260507054721 | 8 | 16 | 16.1 | 20.9 | 0.00 | 0.00 | 0.00 | 65 | 1020.8 |
| 20260507054218 | 8 | 40 | 14.5 | 20.9 | 0.00 | 0.00 | 0.00 | 65 | 1020.9 |
| 20260507053716 | 8 | 36 | 9.7 | 20.9 | 0.00 | 0.00 | 0.00 | 65 | 1021.1 |
| 20260507053214 | 8 | 60 | 11.3 | 22.5 | 0.00 | 0.00 | 0.00 | 65 | 1021.1 |
| 20260507052713 | 8 | 37 | 14.5 | 24.1 | 0.00 | 0.00 | 0.00 | 65 | 1020.8 |
| 20260507052208 | 8 | 38 | 11.3 | 22.5 | 0.00 | 0.00 | 0.00 | 65 | 1020.7 |
| 20260507051706 | 8 | 47 | 14.5 | 24.1 | 0.00 | 0.00 | 0.00 | 65 | 1021.0 |
| 20260507051203 | 8 | 37 | 9.7 | 25.7 | 0.00 | 0.00 | 0.00 | 66 | 1020.8 |
| 20260507050659 | 8 | 6 | 20.9 | 24.1 | 0.00 | 0.00 | 0.00 | 66 | 1020.9 |
| 20260507050156 | 8 | 22 | 17.7 | 29.0 | 0.00 | 0.00 | 0.00 | 65 | 1020.9 |
| 20260507045653 | 8 | 20 | 19.3 | 30.6 | 0.00 | 0.00 | 0.00 | 64 | 1020.9 |
| 20260507045149 | 8 | 35 | 24.1 | 29.0 | 0.00 | 0.00 | 0.00 | 63 | 1021.1 |
| 20260507044646 | 8 | 10 | 16.1 | 30.6 | 0.00 | 0.00 | 0.00 | 63 | 1021.0 |
| 20260507044143 | 8 | 24 | 12.9 | 20.9 | 0.00 | 0.00 | 0.00 | 63 | 1021.0 |
| 20260507043639 | 8 | 15 | 17.7 | 22.5 | 0.00 | 0.00 | 0.00 | 63 | 1020.9 |
| 20260507043136 | 8 | 40 | 20.9 | 24.1 | 0.00 | 0.00 | 0.00 | 62 | 1020.8 |
| 20260507042632 | 8 | 22 | 16.1 | 24.1 | 0.00 | 0.00 | 0.00 | 62 | 1020.7 |
| 20260507042121 | 8 | 19 | 17.7 | 25.7 | 0.00 | 0.00 | 0.00 | 62 | 1020.6 |
| 20260507041619 | 8 | 7 | 17.7 | 29.0 | 0.00 | 0.00 | 0.00 | 62 | 1020.7 |
| 20260507041116 | 8 | 9 | 17.7 | 24.1 | 0.00 | 0.00 | 0.00 | 61 | 1020.2 |
| 20260507040612 | 9 | 41 | 17.7 | 33.8 | 0.00 | 0.00 | 0.00 | 61 | 1020.2 |
| 20260507040103 | 9 | 20 | 24.1 | 29.0 | 0.00 | 0.00 | 0.00 | 60 | 1020.2 |
| 20260507035559 | 9 | 23 | 19.3 | 29.0 | 0.00 | 0.00 | 0.00 | 60 | 1020.2 |
| 20260507035055 | 9 | 15 | 27.4 | 38.6 | 0.00 | 0.00 | 0.00 | 60 | 1020.5 |
| 20260507034552 | 9 | 26 | 22.5 | 27.4 | 0.00 | 0.00 | 0.00 | 60 | 1020.1 |
| 20260507034050 | 10 | 7 | 27.4 | 35.4 | 0.00 | 0.00 | 0.00 | 60 | 1020.5 |
| 20260507033548 | 10 | 23 | 20.9 | 27.4 | 0.00 | 0.00 | 0.00 | 60 | 1020.1 |
| 20260507033045 | 10 | 12 | 24.1 | 27.4 | 0.00 | 0.00 | 0.00 | 61 | 1020.1 |
| 20260507032542 | 10 | 31 | 25.7 | 37.0 | 0.00 | 0.00 | 0.00 | 61 | 1019.9 |
| 20260507032038 | 10 | 25 | 27.4 | 43.5 | 0.00 | 0.00 | 0.00 | 62 | 1020.1 |
| 20260507031535 | 10 | 35 | 20.9 | 37.0 | 0.00 | 0.00 | 0.00 | 62 | 1020.1 |
| 20260507031032 | 10 | 41 | 22.5 | 33.8 | 0.00 | 0.00 | 0.00 | 61 | 1020.0 |
| 20260507030529 | 11 | 23 | 24.1 | 40.2 | 0.00 | 0.00 | 0.00 | 57 | 1019.4 |
| 20260507030027 | 11 | 5 | 19.3 | 32.2 | 0.00 | 0.00 | 0.00 | 56 | 1019.6 |
| 20260507025523 | 11 | 37 | 25.7 | 40.2 | 0.00 | 0.00 | 0.00 | 55 | 1019.4 |
| 20260507025021 | 11 | 30 | 20.9 | 35.4 | 0.00 | 0.00 | 0.00 | 54 | 1019.1 |
| 20260507024518 | 11 | 25 | 19.3 | 33.8 | 0.00 | 0.00 | 0.00 | 54 | 1019.4 |
| 20260507024015 | 11 | 16 | 20.9 | 37.0 | 0.00 | 0.00 | 0.00 | 53 | 1019.0 |
| 20260507023511 | 12 | 16 | 16.1 | 32.2 | 0.00 | 0.00 | 0.00 | 53 | 1019.0 |
| 20260507023009 | 12 | 4 | 20.9 | 22.5 | 0.00 | 0.00 | 0.00 | 53 | 1018.8 |
| 20260507022505 | 12 | 12 | 17.7 | 25.7 | 0.00 | 0.00 | 0.00 | 53 | 1018.7 |
| 20260507022000 | 12 | 35 | 14.5 | 33.8 | 0.00 | 0.00 | 0.00 | 54 | 1018.6 |
| 20260507021456 | 12 | 30 | 20.9 | 25.7 | 0.00 | 0.00 | 0.00 | 53 | 1018.2 |
| 20260507020953 | 12 | 21 | 16.1 | 27.4 | 0.00 | 0.00 | 0.00 | 53 | 1017.9 |
| 20260507020450 | 12 | 33 | 12.9 | 22.5 | 0.00 | 0.00 | 0.00 | 53 | 1017.9 |
| 20260507015947 | 12 | 30 | 17.7 | 24.1 | 0.00 | 0.00 | 0.00 | 53 | 1018.0 |
| 20260507015445 | 12 | 30 | 17.7 | 27.4 | 0.00 | 0.00 | 0.00 | 53 | 1017.5 |
| 20260507014936 | 12 | 42 | 17.7 | 24.1 | 0.00 | 0.00 | 0.00 | 53 | 1017.6 |
| 20260507014433 | 12 | 22 | 16.1 | 30.6 | 0.00 | 0.00 | 0.00 | 53 | 1017.1 |
| 20260507013929 | 12 | 56 | 19.3 | 22.5 | 0.00 | 0.00 | 0.00 | 52 | 1016.8 |
| 20260507013426 | 12 | 53 | 14.5 | 24.1 | 0.00 | 0.00 | 0.00 | 52 | 1016.6 |
| 20260507012924 | 13 | 69 | 17.7 | 25.7 | 0.00 | 0.00 | 0.00 | 51 | 1016.6 |
| 20260507012420 | 13 | 65 | 16.1 | 27.4 | 0.00 | 0.00 | 0.00 | 51 | 1016.2 |
| 20260507011917 | 13 | 82 | 14.5 | 24.1 | 0.00 | 0.00 | 0.00 | 51 | 1016.0 |
| 20260507011414 | 13 | 63 | 17.7 | 29.0 | 0.00 | 0.00 | 0.00 | 50 | 1015.7 |
| 20260507010914 | 13 | 82 | 24.1 | 29.0 | 0.00 | 0.00 | 0.00 | 49 | 1016.0 |
| 20260507010409 | 14 | 81 | 17.7 | 25.7 | 0.00 | 0.00 | 0.00 | 49 | 1015.8 |
| 20260507005907 | 14 | 72 | 14.5 | 29.0 | 0.00 | 0.00 | 0.00 | 48 | 1015.6 |
| 20260507005403 | 14 | 71 | 22.5 | 27.4 | 0.00 | 0.00 | 0.00 | 49 | 1015.6 |
| 20260507004900 | 15 | 82 | 17.7 | 27.4 | 0.00 | 0.00 | 0.00 | 48 | 1015.5 |
| 20260507004357 | 15 | 77 | 12.9 | 29.0 | 0.00 | 0.00 | 0.00 | 48 | 1015.3 |
| 20260507003854 | 15 | 106 | 14.5 | 25.7 | 0.00 | 0.00 | 0.00 | 48 | 1015.3 |
| 20260507003349 | 15 | 103 | 14.5 | 29.0 | 0.00 | 0.00 | 0.00 | 48 | 1015.2 |
| 20260507002845 | 15 | 71 | 16.1 | 29.0 | 0.00 | 0.00 | 0.00 | 48 | 1015.2 |
| 20260507002341 | 15 | 87 | 27.4 | 27.4 | 0.00 | 0.00 | 0.00 | 48 | 1015.1 |
| 20260507001839 | 15 | 87 | 25.7 | 29.0 | 0.00 | 0.00 | 0.00 | 48 | 1015.0 |
| 20260507001335 | 15 | 87 | 24.1 | 27.4 | 0.00 | 0.00 | 0.00 | 48 | 1014.7 |
| 20260507000832 | 15 | 94 | 19.3 | 29.0 | 0.00 | 0.00 | 0.00 | 48 | 1014.8 |
| 20260507000328 | 15 | 93 | 20.9 | 30.6 | 0.00 | 0.00 | 0.00 | 47 | 1014.9 |
| 20260506235824 | 15 | 84 | 16.1 | 29.0 | 0.00 | 0.00 | 0.00 | 48 | 1014.6 |
| 20260506235320 | 15 | 92 | 17.7 | 27.4 | 0.00 | 0.00 | 0.00 | 47 | 1014.6 |
| 20260506234817 | 15 | 99 | 11.3 | 38.6 | 0.00 | 0.00 | 0.00 | 48 | 1014.7 |
| 20260506234315 | 15 | 94 | 14.5 | 27.4 | 0.00 | 0.00 | 0.00 | 48 | 1014.7 |
| 20260506233812 | 15 | 80 | 27.4 | 33.8 | 0.00 | 0.00 | 0.00 | 47 | 1014.9 |
| 20260506233308 | 15 | 94 | 30.6 | 33.8 | 0.00 | 0.00 | 0.00 | 48 | 1015.1 |
| 20260506232805 | 15 | 87 | 12.9 | 25.7 | 0.00 | 0.00 | 0.00 | 48 | 1014.9 |
| 20260506232259 | 15 | 85 | 12.9 | 20.9 | 0.00 | 0.00 | 0.00 | 49 | 1015.0 |
| 20260506231751 | 15 | 72 | 24.1 | 30.6 | 0.00 | 0.00 | 0.00 | 48 | 1014.9 |
| 20260506231250 | 15 | 89 | 38.6 | 43.5 | 0.00 | 0.00 | 0.00 | 48 | 1015.0 |
| 20260506230746 | 15 | 62 | 22.5 | 41.8 | 0.00 | 0.00 | 0.00 | 48 | 1014.7 |
| 20260506230243 | 15 | 88 | 19.3 | 33.8 | 0.00 | 0.00 | 0.00 | 48 | 1014.7 |
| 20260506225739 | 15 | 66 | 17.7 | 32.2 | 0.00 | 0.00 | 0.00 | 48 | 1014.5 |
| 20260506225237 | 15 | 83 | 20.9 | 37.0 | 0.00 | 0.00 | 0.00 | 48 | 1014.7 |
| 20260506224733 | 15 | 79 | 14.5 | 29.0 | 0.00 | 0.00 | 0.00 | 48 | 1014.8 |
| 20260506224230 | 15 | 62 | 29.0 | 38.6 | 0.00 | 0.00 | 0.00 | 48 | 1014.7 |
| 20260506223726 | 15 | 94 | 17.7 | 32.2 | 0.00 | 0.00 | 0.00 | 48 | 1014.7 |
| 20260506223222 | 15 | 103 | 14.5 | 30.6 | 0.00 | 0.00 | 0.00 | 47 | 1014.7 |
| 20260506222720 | 15 | 54 | 25.7 | 33.8 | 0.00 | 0.00 | 0.00 | 48 | 1014.7 |
| 20260506222215 | 15 | 80 | 24.1 | 37.0 | 0.00 | 0.00 | 0.00 | 49 | 1014.7 |
| 20260506221713 | 16 | 79 | 20.9 | 24.1 | 0.00 | 0.00 | 0.00 | 47 | 1014.8 |
| 20260506221211 | 15 | 77 | 11.3 | 25.7 | 0.00 | 0.00 | 0.00 | 48 | 1014.8 |
| 20260506220708 | 16 | 84 | 19.3 | 29.0 | 0.00 | 0.00 | 0.00 | 48 | 1014.8 |
| 20260506220202 | 15 | 78 | 20.9 | 40.2 | 0.00 | 0.00 | 0.00 | 48 | 1014.8 |
| 20260506215659 | 15 | 58 | 14.5 | 29.0 | 0.00 | 0.00 | 0.00 | 47 | 1014.9 |
| 20260506215154 | 16 | 75 | 24.1 | 25.7 | 0.00 | 0.00 | 0.00 | 48 | 1015.0 |
| 20260506214652 | 16 | 95 | 33.8 | 33.8 | 0.00 | 0.00 | 0.00 | 47 | 1014.8 |
| 20260506214149 | 15 | 82 | 20.9 | 33.8 | 0.00 | 0.00 | 0.00 | 48 | 1014.9 |
| 20260506213648 | 15 | 64 | 19.3 | 30.6 | 0.00 | 0.00 | 0.00 | 50 | 1014.9 |
| 20260506213144 | 15 | 74 | 24.1 | 37.0 | 0.00 | 0.00 | 0.00 | 49 | 1015.0 |
| 20260506212642 | 15 | 83 | 22.5 | 38.6 | 0.00 | 0.00 | 0.00 | 49 | 1015.0 |
| 20260506212136 | 15 | 72 | 20.9 | 38.6 | 0.00 | 0.00 | 0.00 | 49 | 1014.9 |
| 20260506211632 | 15 | 107 | 20.9 | 27.4 | 0.00 | 0.00 | 0.00 | 48 | 1014.9 |
| 20260506211129 | 15 | 91 | 19.3 | 32.2 | 0.00 | 0.00 | 0.00 | 48 | 1014.9 |
| 20260506210627 | 16 | 66 | 20.9 | 30.6 | 0.00 | 0.00 | 0.00 | 48 | 1014.9 |
| 20260506210123 | 15 | 67 | 30.6 | 37.0 | 0.00 | 0.00 | 0.00 | 48 | 1014.9 |
| 20260506205620 | 16 | 79 | 27.4 | 30.6 | 0.00 | 0.00 | 0.00 | 47 | 1015.0 |
| 20260506205114 | 16 | 74 | 19.3 | 30.6 | 0.00 | 0.00 | 0.00 | 47 | 1015.0 |
| 20260506204613 | 16 | 64 | 17.7 | 22.5 | 0.00 | 0.00 | 0.00 | 47 | 1015.0 |
| 20260506204109 | 16 | 56 | 22.5 | 29.0 | 0.00 | 0.00 | 0.00 | 47 | 1015.1 |
| 20260506203608 | 17 | 69 | 30.6 | 33.8 | 0.00 | 0.00 | 0.00 | 44 | 1015.2 |
| 20260506203104 | 17 | 100 | 16.1 | 29.0 | 0.00 | 0.00 | 0.00 | 44 | 1015.1 |
| 20260506202602 | 16 | 91 | 8.0 | 20.9 | 0.00 | 0.00 | 0.00 | 46 | 1014.8 |
| 20260506202058 | 15 | 105 | 11.3 | 19.3 | 0.00 | 0.00 | 0.00 | 48 | 1015.1 |
| 20260506201555 | 15 | 98 | 6.4 | 20.9 | 0.00 | 0.00 | 0.00 | 49 | 1015.5 |
| 20260506201052 | 15 | 109 | 11.3 | 24.1 | 0.00 | 0.00 | 0.00 | 49 | 1014.9 |
| 20260506200548 | 15 | 54 | 27.4 | 32.2 | 0.00 | 0.00 | 0.00 | 48 | 1015.0 |
| 20260506200045 | 16 | 87 | 32.2 | 33.8 | 0.00 | 0.00 | 0.00 | 46 | 1015.0 |
| 20260506195542 | 15 | 143 | 6.4 | 24.1 | 0.00 | 0.00 | 0.00 | 48 | 1015.0 |
| 20260506195038 | 16 | 96 | 12.9 | 27.4 | 0.00 | 0.00 | 0.00 | 46 | 1014.9 |
| 20260506194536 | 15 | 84 | 22.5 | 30.6 | 0.00 | 0.00 | 0.00 | 48 | 1015.1 |
| 20260506194032 | 16 | 81 | 9.7 | 14.5 | 0.00 | 0.00 | 0.00 | 46 | 1015.3 |
| 20260506193530 | 15 | 95 | 12.9 | 17.7 | 0.00 | 0.00 | 0.00 | 49 | 1015.2 |
| 20260506193027 | 15 | 131 | 17.7 | 27.4 | 0.00 | 0.00 | 0.00 | 49 | 1015.3 |
| 20260506192524 | 15 | 42 | 8.0 | 24.1 | 0.00 | 0.00 | 0.00 | 48 | 1015.3 |
| 20260506192019 | 15 | 89 | 12.9 | 24.1 | 0.00 | 0.00 | 0.00 | 50 | 1015.6 |
| 20260506191516 | 14 | 94 | 14.5 | 16.1 | 0.00 | 0.00 | 0.00 | 50 | 1015.5 |
| 20260506191012 | 15 | 82 | 22.5 | 37.0 | 0.00 | 0.00 | 0.00 | 49 | 1015.5 |
| 20260506190510 | 15 | 85 | 19.3 | 29.0 | 0.00 | 0.00 | 0.00 | 50 | 1015.7 |
| 20260506190007 | 15 | 69 | 22.5 | 29.0 | 0.00 | 0.00 | 0.00 | 49 | 1015.7 |
| 20260506185504 | 15 | 96 | 11.3 | 14.5 | 0.00 | 0.00 | 0.00 | 50 | 1015.6 |
| 20260506185000 | 15 | 82 | 20.9 | 27.4 | 0.00 | 0.00 | 0.00 | 51 | 1015.7 |
| 20260506184457 | 15 | 99 | 12.9 | 16.1 | 0.00 | 0.00 | 0.00 | 53 | 1015.5 |
| 20260506183955 | 13 | 48 | 11.3 | 20.9 | 0.00 | 0.00 | 0.00 | 52 | 1015.8 |
| 20260506183450 | 14 | 37 | 12.9 | 22.5 | 0.00 | 0.00 | 0.00 | 50 | 1015.9 |
| 20260506182947 | 14 | 73 | 19.3 | 30.6 | 0.00 | 0.00 | 0.00 | 50 | 1015.9 |
| 20260506182444 | 14 | 55 | 12.9 | 17.7 | 0.00 | 0.00 | 0.00 | 51 | 1016.0 |
| 20260506181941 | 14 | 61 | 14.5 | 22.5 | 0.00 | 0.00 | 0.00 | 50 | 1016.2 |
| 20260506181439 | 13 | 68 | 9.7 | 19.3 | 0.00 | 0.00 | 0.00 | 52 | 1016.2 |
| 20260506180936 | 15 | 51 | 9.7 | 19.3 | 0.00 | 0.00 | 0.00 | 49 | 1016.5 |
| 20260506180432 | 14 | 21 | 8.0 | 9.7 | 0.00 | 0.00 | 0.00 | 49 | 1016.1 |
| 20260506175929 | 15 | 52 | 9.7 | 17.7 | 0.00 | 0.00 | 0.00 | 49 | 1016.3 |
| 20260506175426 | 13 | 99 | 6.4 | 11.3 | 0.00 | 0.00 | 0.00 | 51 | 1016.3 |
| 20260506174923 | 13 | 104 | 11.3 | 20.9 | 0.00 | 0.00 | 0.00 | 51 | 1016.1 |
| 20260506174421 | 14 | 107 | 9.7 | 17.7 | 0.00 | 0.00 | 0.00 | 51 | 1016.3 |
| 20260506173917 | 14 | 49 | 9.7 | 12.9 | 0.00 | 0.00 | 0.00 | 50 | 1016.5 |
| 20260506173414 | 13 | 82 | 11.3 | 19.3 | 0.00 | 0.00 | 0.00 | 52 | 1016.5 |
| 20260506172911 | 13 | 117 | 12.9 | 20.9 | 0.00 | 0.00 | 0.00 | 53 | 1016.6 |
| 20260506172407 | 13 | 134 | 11.3 | 17.7 | 0.00 | 0.00 | 0.00 | 52 | 1016.6 |
| 20260506171905 | 14 | 130 | 4.8 | 8.0 | 0.00 | 0.00 | 0.00 | 50 | 1016.3 |
| 20260506171402 | 13 | 89 | 12.9 | 17.7 | 0.00 | 0.00 | 0.00 | 54 | 1016.6 |
| 20260506170854 | 13 | 88 | 8.0 | 14.5 | 0.00 | 0.00 | 0.00 | 54 | 1016.6 |
| 20260506170350 | 12 | 86 | 16.1 | 27.4 | 0.00 | 0.00 | 0.00 | 55 | 1016.7 |
| 20260506165849 | 12 | 79 | 14.5 | 14.5 | 0.00 | 0.00 | 0.00 | 56 | 1016.6 |
| 20260506165347 | 12 | 206 | 8.0 | 9.7 | 0.00 | 0.00 | 0.00 | 55 | 1016.7 |
| 20260506164843 | 12 | 150 | 8.0 | 16.1 | 0.00 | 0.00 | 0.00 | 55 | 1016.5 |
| 20260506164340 | 13 | 79 | 8.0 | 11.3 | 0.00 | 0.00 | 0.00 | 52 | 1016.5 |
| 20260506163838 | 13 | 77 | 4.8 | 9.7 | 0.00 | 0.00 | 0.00 | 53 | 1016.3 |
| 20260506163332 | 12 | 66 | 9.7 | 17.7 | 0.00 | 0.00 | 0.00 | 56 | 1016.7 |
| 20260506162827 | 12 | 123 | 8.0 | 14.5 | 0.00 | 0.00 | 0.00 | 56 | 1016.3 |
| 20260506162325 | 11 | 136 | 3.2 | 12.9 | 0.00 | 0.00 | 0.00 | 58 | 1016.5 |
| 20260506161817 | 12 | 108 | 6.4 | 16.1 | 0.00 | 0.00 | 0.00 | 57 | 1016.6 |
| 20260506161314 | 11 | 71 | 3.2 | 9.7 | 0.00 | 0.00 | 0.00 | 60 | 1016.2 |
| 20260506160812 | 11 | 78 | 9.7 | 19.3 | 0.00 | 0.00 | 0.00 | 60 | 1016.2 |
| 20260506160308 | 11 | 91 | 14.5 | 17.7 | 0.00 | 0.00 | 0.00 | 61 | 1016.2 |
| 20260506155807 | 10 | 49 | 8.0 | 19.3 | 0.00 | 0.00 | 0.00 | 63 | 1016.3 |
| 20260506155306 | 10 | 82 | 11.3 | 14.5 | 0.00 | 0.00 | 0.00 | 61 | 1016.2 |
| 20260506153416 | 10 | 81 | 16.1 | 19.3 | 0.00 | 0.00 | 0.00 | 63 | 1016.0 |
| 20260506152914 | 10 | 81 | 14.5 | 24.1 | 0.00 | 0.00 | 0.00 | 61 | 1015.9 |
| 20260506152410 | 11 | 35 | 9.7 | 17.7 | 0.00 | 0.00 | 0.00 | 60 | 1015.9 |
| 20260506151909 | 10 | 45 | 11.3 | 17.7 | 0.00 | 0.00 | 0.00 | 62 | 1016.0 |
| 20260506151405 | 10 | 87 | 11.3 | 20.9 | 0.00 | 0.00 | 0.00 | 63 | 1015.9 |
| 20260506150903 | 9 | 104 | 9.7 | 16.1 | 0.00 | 0.00 | 0.00 | 63 | 1016.0 |
| 20260506150359 | 9 | 99 | 9.7 | 17.7 | 0.00 | 0.00 | 0.00 | 65 | 1016.0 |
| 20260506145855 | 9 | 102 | 14.5 | 29.0 | 0.00 | 0.00 | 0.00 | 63 | 1016.0 |
| 20260506145351 | 10 | 119 | 4.8 | 9.7 | 0.00 | 0.00 | 0.00 | 63 | 1016.0 |
| 20260506144849 | 8 | 99 | 8.0 | 16.1 | 0.00 | 0.00 | 0.00 | 65 | 1015.9 |
| 20260506144345 | 9 | 81 | 6.4 | 16.1 | 0.00 | 0.00 | 0.00 | 63 | 1015.6 |
| 20260506143845 | 9 | 83 | 12.9 | 17.7 | 0.00 | 0.00 | 0.00 | 64 | 1015.6 |
| 20260506143341 | 8 | 118 | 6.4 | 17.7 | 0.00 | 0.00 | 0.00 | 65 | 1015.3 |
| 20260506142839 | 8 | 98 | 12.9 | 20.9 | 0.00 | 0.00 | 0.00 | 67 | 1015.2 |
| 20260506142337 | 8 | 128 | 14.5 | 27.4 | 0.00 | 0.00 | 0.00 | 67 | 1015.0 |
| 20260506141835 | 8 | 126 | 16.1 | 27.4 | 0.00 | 0.00 | 0.00 | 68 | 1015.1 |
| 20260506141333 | 7 | 107 | 14.5 | 22.5 | 0.00 | 0.00 | 0.00 | 68 | 1015.2 |
| 20260506140831 | 8 | 93 | 12.9 | 20.9 | 0.00 | 0.00 | 0.00 | 69 | 1015.3 |
| 20260506140327 | 7 | 92 | 11.3 | 22.5 | 0.00 | 0.00 | 0.00 | 69 | 1015.3 |
| 20260506135824 | 7 | 92 | 14.5 | 33.8 | 0.00 | 0.00 | 0.00 | 70 | 1015.2 |
| 20260506135321 | 7 | 131 | 17.7 | 27.4 | 0.00 | 0.00 | 0.00 | 71 | 1015.2 |
| 20260506134817 | 6 | 104 | 19.3 | 25.7 | 0.00 | 0.00 | 0.00 | 72 | 1015.3 |
| 20260506134314 | 6 | 109 | 16.1 | 27.4 | 0.00 | 0.00 | 0.00 | 72 | 1015.3 |
| 20260506133811 | 6 | 87 | 14.5 | 24.1 | 0.00 | 0.00 | 0.00 | 73 | 1015.3 |
| 20260506133308 | 6 | 122 | 12.9 | 24.1 | 0.00 | 0.00 | 0.00 | 74 | 1015.3 |
| 20260506132804 | 6 | 117 | 14.5 | 22.5 | 0.00 | 0.00 | 0.00 | 74 | 1015.5 |
| 20260506132302 | 6 | 101 | 9.7 | 20.9 | 0.00 | 0.00 | 0.00 | 74 | 1015.7 |
| 20260506131800 | 6 | 102 | 14.5 | 25.7 | 0.00 | 0.00 | 0.00 | 75 | 1015.9 |
| 20260506131255 | 6 | 91 | 9.7 | 20.9 | 0.00 | 0.00 | 0.00 | 75 | 1016.1 |
| 20260506130752 | 6 | 107 | 11.3 | 17.7 | 0.00 | 0.00 | 0.00 | 75 | 1016.0 |
| 20260506130249 | 6 | 95 | 12.9 | 17.7 | 0.00 | 0.00 | 0.00 | 75 | 1015.9 |
| 20260506125747 | 6 | 113 | 9.7 | 16.1 | 0.00 | 0.00 | 0.00 | 75 | 1016.0 |
| 20260506125245 | 6 | 95 | 11.3 | 17.7 | 0.00 | 0.00 | 0.00 | 76 | 1016.0 |
| 20260506124743 | 5 | 105 | 8.0 | 17.7 | 0.00 | 0.00 | 0.00 | 76 | 1016.0 |
| 20260506124240 | 5 | 103 | 9.7 | 20.9 | 0.00 | 0.00 | 0.00 | 76 | 1015.6 |
| 20260506123738 | 5 | 100 | 11.3 | 17.7 | 0.00 | 0.00 | 0.00 | 76 | 1015.9 |
| 20260506123237 | 5 | 91 | 9.7 | 17.7 | 0.00 | 0.00 | 0.00 | 77 | 1015.9 |
| 20260506122733 | 5 | 110 | 11.3 | 16.1 | 0.00 | 0.00 | 0.00 | 77 | 1015.7 |
| 20260506122230 | 5 | 101 | 11.3 | 16.1 | 0.00 | 0.00 | 0.00 | 77 | 1015.6 |
| 20260506121728 | 5 | 112 | 6.4 | 16.1 | 0.00 | 0.00 | 0.00 | 77 | 1015.5 |
| 20260506121225 | 5 | 74 | 17.7 | 19.3 | 0.00 | 0.00 | 0.00 | 77 | 1015.5 |
| 20260506120722 | 5 | 85 | 12.9 | 20.9 | 0.00 | 0.00 | 0.00 | 78 | 1015.3 |
| 20260506120219 | 5 | 99 | 11.3 | 19.3 | 0.00 | 0.00 | 0.00 | 78 | 1015.0 |
| 20260506115717 | 5 | 108 | 17.7 | 22.5 | 0.00 | 0.00 | 0.00 | 78 | 1015.2 |
| 20260506115215 | 5 | 103 | 14.5 | 25.7 | 0.00 | 0.00 | 0.00 | 78 | 1015.2 |
| 20260506114713 | 5 | 104 | 22.5 | 29.0 | 0.00 | 0.00 | 0.00 | 79 | 1015.0 |
| 20260506114210 | 5 | 104 | 17.7 | 20.9 | 0.00 | 0.00 | 0.00 | 81 | 1015.2 |
| 20260506113708 | 5 | 87 | 12.9 | 20.9 | 0.00 | 0.00 | 0.00 | 82 | 1015.1 |
| 20260506113205 | 5 | 107 | 17.7 | 25.7 | 0.00 | 0.00 | 0.00 | 83 | 1015.0 |
| 20260506112701 | 5 | 77 | 17.7 | 22.5 | 0.00 | 0.00 | 0.00 | 84 | 1014.7 |
| 20260506112159 | 5 | 94 | 9.7 | 25.7 | 0.00 | 0.00 | 0.00 | 85 | 1014.7 |
| 20260506111657 | 5 | 102 | 11.3 | 24.1 | 0.00 | 0.00 | 0.00 | 86 | 1014.9 |
| 20260506111154 | 5 | 82 | 12.9 | 25.7 | 0.00 | 0.00 | 0.00 | 86 | 1014.9 |
| 20260506110651 | 5 | 88 | 17.7 | 22.5 | 0.00 | 0.00 | 0.00 | 86 | 1014.8 |
| 20260506110149 | 5 | 76 | 20.9 | 25.7 | 0.00 | 0.00 | 0.00 | 86 | 1015.2 |
| 20260506105645 | 5 | 72 | 16.1 | 25.7 | 0.00 | 0.00 | 0.00 | 86 | 1014.9 |
| 20260506105142 | 5 | 86 | 20.9 | 24.1 | 0.00 | 0.00 | 0.00 | 86 | 1015.1 |
| 20260506104640 | 5 | 80 | 19.3 | 25.7 | 0.00 | 0.00 | 0.00 | 86 | 1014.9 |
| 20260506104138 | 5 | 65 | 14.5 | 17.7 | 0.00 | 0.00 | 0.00 | 86 | 1014.8 |
| 20260506103635 | 6 | 78 | 19.3 | 19.3 | 0.00 | 0.00 | 0.00 | 86 | 1014.7 |
| 20260506103132 | 6 | 60 | 24.1 | 35.4 | 0.00 | 0.00 | 0.00 | 85 | 1014.9 |
| 20260506102630 | 6 | 94 | 20.9 | 30.6 | 0.00 | 0.00 | 0.00 | 85 | 1014.7 |
| 20260506102127 | 6 | 93 | 14.5 | 24.1 | 0.00 | 0.00 | 0.00 | 85 | 1014.8 |
| 20260506101623 | 6 | 79 | 14.5 | 20.9 | 0.00 | 0.00 | 0.00 | 85 | 1014.9 |
| 20260506101120 | 6 | 74 | 22.5 | 25.7 | 0.00 | 0.00 | 0.00 | 85 | 1014.7 |
| 20260506100619 | 6 | 61 | 17.7 | 25.7 | 0.00 | 0.00 | 0.00 | 85 | 1014.3 |
| 20260506100116 | 6 | 72 | 20.9 | 29.0 | 0.00 | 0.00 | 0.00 | 84 | 1014.5 |
| 20260506095615 | 6 | 69 | 11.3 | 24.1 | 0.00 | 0.00 | 0.00 | 83 | 1014.2 |
| 20260506095111 | 6 | 81 | 14.5 | 27.4 | 0.00 | 0.00 | 0.00 | 82 | 1014.1 |
| 20260506094609 | 6 | 85 | 14.5 | 25.7 | 0.00 | 0.00 | 0.00 | 82 | 1013.9 |
| 20260506094106 | 6 | 79 | 24.1 | 27.4 | 0.00 | 0.00 | 0.00 | 82 | 1013.8 |
| 20260506093605 | 6 | 91 | 20.9 | 25.7 | 0.00 | 0.00 | 0.00 | 81 | 1013.7 |
| 20260506093102 | 6 | 78 | 14.5 | 20.9 | 0.00 | 0.00 | 0.00 | 81 | 1013.6 |
| 20260506092600 | 6 | 67 | 19.3 | 29.0 | 0.00 | 0.00 | 0.00 | 81 | 1013.9 |
| 20260506092056 | 6 | 74 | 14.5 | 24.1 | 0.00 | 0.00 | 0.00 | 81 | 1013.7 |
| 20260506091554 | 6 | 74 | 12.9 | 20.9 | 0.00 | 0.00 | 0.00 | 81 | 1013.6 |
| 20260506091052 | 6 | 79 | 17.7 | 27.4 | 0.00 | 0.00 | 0.00 | 81 | 1013.5 |
| 20260506090549 | 6 | 75 | 16.1 | 27.4 | 0.00 | 0.00 | 0.00 | 81 | 1013.5 |
| 20260506090045 | 6 | 84 | 12.9 | 27.4 | 0.00 | 0.00 | 0.00 | 81 | 1013.6 |
| 20260506085542 | 6 | 66 | 16.1 | 30.6 | 0.00 | 0.00 | 0.00 | 81 | 1013.3 |
| 20260506085038 | 6 | 71 | 19.3 | 25.7 | 0.00 | 0.00 | 0.00 | 81 | 1013.7 |
| 20260506084536 | 6 | 83 | 14.5 | 20.9 | 0.00 | 0.00 | 0.00 | 81 | 1013.5 |